Location: Melizzano
(41.1500°N, 14.5000°E)
Time: 20:42:02
(UTC+00:00)

USA 305 - Pass Details

Date: 11 May 2021
Orbit: 567 x 573 km, 54.0° (Epoch: 07 May)

Event Time Altitude Azimuth Distance (km) Brightness Sun altitude
Rises 20:23:58 0° 313° (NW) 2,773 7.9 -20.8°
Reaches altitude 10° 20:26:19 10° 321° (NW) 1,875 6.7 -21.1°
Maximum altitude 20:30:22 41° 32° (NNE) 836 3.8 -21.5°
Enters shadow 20:31:23 35° 67° (ENE) 935 3.8 -21.7°
